Stevensville, MD

5:27 PM EDT on June 23, 2017 (GMT -0400)
Stevensville

Weather History for KW29 - December, 2012

Change the Weather History Date:

Saturday, December 1, 2012

  Actual Average (KESN) Record (KESN)
Temperature  
Mean Temperature 40 °F -  
Max Temperature 44 °F 48 °F 71 °F (2006)
Min Temperature 35 °F 30 °F 16 °F (1976)
Degree Days  
Heating Degree Days 26    
Moisture  
Dew Point 40 °F    
Average Humidity 99    
Maximum Humidity 100    
Minimum Humidity 87    
Precipitation  
Precipitation 0.00 in - - ()
Sea Level Pressure  
Sea Level Pressure 30.40 in    
Wind  
Wind Speed 1 mph (NNE)    
Max Wind Speed 6 mph    
Max Gust Speed -    
Visibility 2 miles    
Events      
Averages and records for this station are not official NWS values.
T = Trace of Precipitation, MM = Missing Value Source: NWS Daily Summary

Daily Weather History Graph

Daily Weather History Graph

Search for Another Location

Airport or City:

Trip Planner

Search our weather history database for the weather conditions in past years. The results will help you decide how hot, cold, wet, or windy it might be!

Date:

Astronomy

Dec. 01, 2012 Rise Set
Actual Time 7:05 AM EST 4:43 PM EST
Civil Twilight 6:36 AM EST 5:12 PM EST
Nautical Twilight 6:02 AM EST 5:45 PM EST
Astronomical Twilight 5:30 AM EST 6:18 PM EST
Moon 7:30 PM EST (12/1) 9:17 AM EST (12/1)
Length of Visible Light 10h 36m
Length of Day
9h 37m
Waning Gibbous, 92% of the Moon is Illuminated
Dec 1
Waning Gibbous
Dec 6
Last Quarter
Dec 13
New
Dec 20
First Quarter
Dec 28
Full

Hourly Weather History & Observations

Time (EST) Temp. Windchill Dew Point Humidity Pressure Visibility Wind Dir Wind Speed Gust Speed Precip Events Conditions
12:01 AM 37.4 °F - 35.6 °F 93% 30.36 in 5.0 mi Calm Calm - N/A   Clear
12:22 AM 35.6 °F - 35.6 °F 100% 30.36 in 4.0 mi Calm Calm - N/A   Clear
12:43 AM 35.6 °F - 35.6 °F 100% 30.36 in 3.0 mi Calm Calm - N/A   Clear
1:05 AM 37.4 °F - 37.4 °F 100% 30.36 in 2.5 mi Calm Calm - N/A   Clear
1:26 AM 37.4 °F - 35.6 °F 93% 30.37 in 3.0 mi Calm Calm - N/A   Clear
1:47 AM 37.4 °F - 37.4 °F 100% 30.37 in 1.8 mi Calm Calm - N/A   Unknown
2:08 AM 35.6 °F - 35.6 °F 100% 30.36 in 2.5 mi Calm Calm - N/A   Clear
2:30 AM 35.6 °F - 35.6 °F 100% 30.36 in 2.0 mi Calm Calm - N/A   Clear
2:51 AM 35.6 °F - 35.6 °F 100% 30.36 in 2.5 mi Calm Calm - N/A   Clear
3:12 AM 37.4 °F - 37.4 °F 100% 30.36 in 2.0 mi Calm Calm - N/A   Clear
3:34 AM 37.4 °F 34.9 °F 37.4 °F 100% 30.36 in 1.8 mi NNW 3.5 mph - N/A   Unknown
3:55 AM 35.6 °F 32.8 °F 35.6 °F 100% 30.35 in 1.2 mi East 3.5 mph - N/A   Unknown
4:16 AM 35.6 °F - 35.6 °F 100% 30.36 in 1.2 mi Calm Calm - N/A   Unknown
4:37 AM 35.6 °F - 35.6 °F 100% 30.36 in 0.8 mi Calm Calm - N/A   Unknown
4:59 AM 37.4 °F - 37.4 °F 100% 30.36 in 1.2 mi Calm Calm - N/A   Unknown
5:20 AM 37.4 °F - 37.4 °F 100% 30.38 in 1.0 mi Calm Calm - N/A   Unknown
5:41 AM 37.4 °F - 37.4 °F 100% 30.38 in 0.8 mi Calm Calm - N/A   Overcast
6:03 AM 39.2 °F 37.0 °F 39.2 °F 100% 30.38 in 0.2 mi NE 3.5 mph - N/A   Overcast
6:24 AM 39.2 °F 35.9 °F 39.2 °F 100% 30.39 in 0.2 mi ENE 4.6 mph - N/A   Overcast
6:45 AM 39.2 °F - 39.2 °F 100% 30.40 in 0.2 mi Calm Calm - N/A   Overcast
7:06 AM 39.2 °F 37.0 °F 39.2 °F 100% 30.41 in 0.2 mi NE 3.5 mph - N/A   Overcast
7:28 AM 39.2 °F 35.9 °F 39.2 °F 100% 30.41 in 0.2 mi NE 4.6 mph - N/A   Overcast
8:31 AM 41.0 °F 37.1 °F 41.0 °F 100% 30.42 in 0.2 mi ENE 5.8 mph - N/A   Overcast
8:53 AM 41.0 °F 38.0 °F 41.0 °F 100% 30.44 in 0.2 mi NNE 4.6 mph - N/A   Overcast
9:14 AM 41.0 °F 38.0 °F 41.0 °F 100% 30.45 in 0.2 mi North 4.6 mph - N/A   Overcast
9:35 AM 41.0 °F 38.0 °F 41.0 °F 100% 30.45 in 0.2 mi North 4.6 mph - N/A   Overcast
9:56 AM 41.0 °F 39.0 °F 41.0 °F 100% 30.44 in 0.5 mi NE 3.5 mph - N/A   Overcast
10:18 AM 41.0 °F 37.1 °F 41.0 °F 100% 30.46 in 0.5 mi NNE 5.8 mph - N/A   Overcast
10:39 AM 41.0 °F 38.0 °F 41.0 °F 100% 30.45 in 1.0 mi NNE 4.6 mph - N/A   Overcast
11:00 AM 41.0 °F 37.1 °F 41.0 °F 100% 30.45 in 2.0 mi NNE 5.8 mph - N/A   Overcast
11:21 AM 42.8 °F 41.1 °F 42.8 °F 100% 30.44 in 3.0 mi NE 3.5 mph - N/A   Overcast
11:42 AM 42.8 °F 41.1 °F 42.8 °F 100% 30.43 in 2.5 mi NNE 3.5 mph - N/A   Overcast
12:04 PM 42.8 °F 40.1 °F 42.8 °F 100% 30.42 in 2.0 mi ENE 4.6 mph - N/A   Overcast
12:25 PM 42.8 °F - 42.8 °F 100% 30.42 in 1.8 mi Calm Calm - N/A   Overcast
12:46 PM 42.8 °F - 42.8 °F 100% 30.42 in 1.8 mi Calm Calm - N/A   Overcast
1:07 PM 42.8 °F - 42.8 °F 100% 30.40 in 2.5 mi Calm Calm - N/A   Overcast
1:29 PM 44.6 °F - 42.8 °F 93% 30.39 in 3.0 mi Calm Calm - N/A   Mostly Cloudy
2:11 PM 44.6 °F 43.1 °F 42.8 °F 93% 30.38 in 4.0 mi West 3.5 mph - N/A   Clear
2:32 PM 44.6 °F 43.1 °F 42.8 °F 93% 30.38 in 4.0 mi West 3.5 mph - N/A   Clear
2:53 PM 44.6 °F - 42.8 °F 93% 30.37 in 4.0 mi Calm Calm - N/A   Clear
3:15 PM 44.6 °F 43.1 °F 42.8 °F 93% 30.38 in 4.0 mi WNW 3.5 mph - N/A   Clear
3:36 PM 44.6 °F - 42.8 °F 93% 30.39 in 4.0 mi Calm Calm - N/A   Clear
3:57 PM 44.6 °F - 42.8 °F 93% 30.38 in 5.0 mi Calm Calm - N/A   Clear
4:18 PM 44.6 °F - 41.0 °F 87% 30.39 in 5.0 mi Calm Calm - N/A   Clear
4:40 PM 42.8 °F - 42.8 °F 100% 30.38 in 4.0 mi Calm Calm - N/A   Clear
5:01 PM 42.8 °F - 41.0 °F 93% 30.39 in 4.0 mi Calm Calm - N/A   Clear
5:22 PM 42.8 °F - 42.8 °F 100% 30.39 in 3.0 mi Calm Calm - N/A   Clear
5:43 PM 42.8 °F - 42.8 °F 100% 30.39 in 3.0 mi Calm Calm - N/A   Clear
6:05 PM 41.0 °F - 41.0 °F 100% 30.40 in 3.0 mi Calm Calm - N/A   Clear
6:26 PM 41.0 °F - 41.0 °F 100% 30.41 in 3.0 mi Calm Calm - N/A   Clear
6:47 PM 41.0 °F - 41.0 °F 100% 30.41 in 4.0 mi Calm Calm - N/A   Clear
7:08 PM 41.0 °F - 41.0 °F 100% 30.41 in 3.0 mi Calm Calm - N/A   Clear
7:51 PM 39.2 °F - 39.2 °F 100% 30.41 in 4.0 mi Calm Calm - N/A   Clear
8:12 PM 39.2 °F - 39.2 °F 100% 30.41 in 5.0 mi Calm Calm - N/A   Clear
8:54 PM 39.2 °F - 39.2 °F 100% 30.41 in 4.0 mi Calm Calm - N/A   Clear
9:16 PM 39.2 °F - 39.2 °F 100% 30.41 in 4.0 mi Calm Calm - N/A   Clear
9:37 PM 39.2 °F - 39.2 °F 100% 30.41 in 3.0 mi Calm Calm - N/A   Clear
9:58 PM 41.0 °F - 41.0 °F 100% 30.41 in 2.5 mi Calm Calm - N/A   Clear
10:20 PM 39.2 °F - 39.2 °F 100% 30.41 in 1.5 mi Calm Calm - N/A   Unknown
11:45 PM 37.4 °F - 37.4 °F 100% 30.40 in 1.5 mi Calm Calm - N/A   Unknown